Location: Coors Field
(39.7564°N, 104.9943°W)
Time: 01:45:49
(UTC-06:00)

ISS - Visible Passes

Search period start: 31 May 2016 00:00
Search period end: 10 June 2016 00:00
Orbit: 402 x 404 km, 51.6° (Epoch: 30 May)

Date Brightness Start Highest point End Pass type
(mag) Time Alt. Az. Time Alt. Az. Time Alt. Az.
31 May 0.3 00:00:08 10° N 00:00:45 10° N 00:01:20 10° NNE visible
31 May -0.6 01:35:47 10° NNW 01:38:12 19° NNE 01:38:25 19° NNE visible
31 May -0.6 21:27:34 10° W 21:30:13 23° NNW 21:32:53 10° NNE visible
31 May 0.2 23:06:48 10° NNW 23:07:36 11° N 23:08:24 10° N visible
01 Jun -0.2 00:43:19 10° NNW 00:45:10 14° NNE 00:46:06 13° NE visible
01 Jun 0.0 22:13:06 10° NW 22:14:29 12° N 22:15:52 10° NNE visible
01 Jun 0.0 23:50:49 10° NNW 23:52:04 12° N 23:53:19 10° NNE visible
02 Jun -0.3 01:26:21 10° NW 01:26:59 14° NNW 01:26:59 14° NNW visible
02 Jun -0.2 21:19:24 10° NW 21:21:23 15° NNW 21:23:23 10° NNE visible
02 Jun 0.1 22:58:15 10° N 22:58:56 10° N 22:59:38 10° NNE visible
03 Jun -0.6 00:33:48 10° NNW 00:35:35 19° N 00:35:35 19° N visible
03 Jun 0.0 22:05:07 10° NNW 22:05:47 10° N 22:06:27 10° N visible
03 Jun -0.5 23:41:17 10° NNW 23:43:19 15° NNE 23:44:15 14° NE visible
04 Jun -0.1 21:11:26 10° NNW 21:12:38 12° N 21:13:50 10° NNE visible
04 Jun -0.3 22:48:48 10° NNW 22:50:14 12° NNE 22:51:40 10° NE visible
05 Jun -0.6 00:24:21 10° NW 00:25:36 20° NNW 00:25:36 20° NNW visible
05 Jun -0.2 21:56:15 10° N 21:57:05 11° N 21:57:56 10° NNE visible
05 Jun -1.2 23:31:46 10° NNW 23:34:25 23° NNE 23:34:25 23° NNE visible
06 Jun -0.1 21:03:19 10° NNW 21:03:55 10° N 21:04:31 10° N visible
06 Jun -0.7 22:39:14 10° NNW 22:41:26 17° NNE 22:43:17 11° ENE visible
07 Jun -0.6 00:15:01 10° NW 00:15:52 17° NW 00:15:52 17° NW visible
07 Jun -0.5 21:46:43 10° NNW 21:48:20 13° NNE 21:49:57 10° NE visible
07 Jun -1.9 23:22:19 10° NW 23:24:46 37° N 23:24:46 37° N visible
08 Jun -1.5 22:29:41 10° NNW 22:32:30 26° NNE 22:33:42 21° ENE visible
09 Jun -0.4 00:05:57 10° WNW 00:06:18 12° WNW 00:06:18 12° WNW visible
09 Jun -0.9 21:37:07 10° NNW 21:39:29 18° NNE 21:41:50 10° ENE visible
09 Jun -2.2 23:13:00 10° NW 23:15:16 42° WNW 23:15:16 42° WNW visible
